Погода в Сингуль-Татарском

Россия / Тюменская область     56°35′26″N   66°01′54″E
темп.,
°C
ветер,
м/с
пор.,
м/с
влажн.,
%
обл.,
%
осадки,
мм/ч
давл.,
гПа
погр.,
м
13 мая, чт
чт1323:00+14сз225548 0.0 102611
02:00+13зюз2258100 0.0 102524
05:00+14зюз395868 0.0 1025213
08:00+19зсз6124714 0.0 1024557
11:00+24сз58355 0.0 10231761
14:00+26ссз683029 0.0 10222500
17:00+27ссз58298 0.0 10222833
20:00+21св385243 0.0 1024208
14 мая, пт
пт1423:00+17всв11645 0.0 102511
02:00+15ююв22725 0.0 102611
05:00+14ю22765 0.0 102725
08:00+20ююз34575 0.0 1027342
11:00+26юз453986 0.0 10261205
14:00+28з573053 0.0 10242893
17:00+29зюз57275 0.0 10232704
20:00+24юз38435 0.0 1022148
15 мая, сб
сб1523:00+20юз375130 0.0 1021102
02:00+18зюз385710 0.0 1021145
05:00+17з37560 0.0 1021111
08:00+23з48460 0.0 1021337
11:00+28з693315 0.0 10201550
14:00+30з7102541 0.0 10192570
17:00+30зюз7928100 0.0 10172874
20:00+24зюз4104341 0.0 1017234
16 мая, вс
вс1623:00+18ссв51168100 0.3 1019313
02:00+16юз337790 0.3 101952
05:00+15зсз368360 0.3 1020121
08:00+21сз126078 0.0 1021269
11:00+27зюз344145 0.0 10201119
14:00+30зюз473012 0.0 10192257
17:00+31з572699 0.0 10172726
20:00+25зюз484024 0.0 1017146
17 мая, пн
пн1723:00+22зюз364618 0.0 101780
02:00+19зюз37507 0.0 1017108
05:00+18з38597 0.1 1017114
08:00+24з48445 0.1 1017330
11:00+29з68300 0.1 10162737
14:00+31з7102412 0.0 10143612
17:00+26з8123392 0.0 1013778
20:00+24зюз41139100 0.0 1012269